FW8987 Weather Reports


time (UTC)temp
F
wind
direction
speed
knots
gust
knots
rain 1hr
in
rain 24hr
in
rain mn
in
humidity
%
barometer
mb
20220811234557 55 166 0.0 0.9 0.00 0.00 0.00 97 1019.5
20220811233528 55 0.0 0.0 0.00 0.00 0.00 98 1019.5
20220811232558 55 0.0 0.0 0.00 0.00 0.00 98 1019.7
20220811231637 55 166 0.0 0.9 0.00 0.00 0.00 98 1019.6
20220811230618 55 0.0 0.0 0.00 0.00 0.00 98 1019.7
20220811225618 55 0.0 0.0 0.00 0.00 0.00 98 1019.6
20220811224559 56 0.0 0.0 0.00 0.00 0.00 98 1019.6
20220811223559 56 0.0 0.9 0.00 0.00 0.00 98 1019.7
20220811222632 55 167 0.0 0.9 0.00 0.00 0.00 97 1019.6
20220811221533 57 0.0 0.0 0.00 0.00 0.00 98 1019.5
20220811220600 57 0.0 0.0 0.00 0.00 0.00 98 1019.5
20220811215617 57 0.0 0.0 0.00 0.00 0.00 97 1019.5
20220811214517 58 0.0 0.0 0.00 0.00 0.00 97 1019.5
20220811213519 58 0.0 0.0 0.00 0.00 0.00 97 1019.6
20220811211559 58 0.0 0.0 0.00 0.00 0.00 96 1019.4
20220811210558 59 0.0 0.0 0.00 0.00 0.00 96 1019.5
20220811205520 59 0.0 0.0 0.00 0.00 0.00 95 1019.4
20220811204519 59 0.0 0.0 0.00 0.00 0.00 95 1019.4
20220811203536 61 0.0 0.0 0.00 0.00 0.00 93 1019.5
20220811202536 61 0.0 0.0 0.00 0.00 0.00 93 1019.7
20220811201537 60 0.0 0.0 0.00 0.00 0.00 93 1019.5
20220811200557 61 0.0 0.0 0.00 0.00 0.00 91 1019.4
20220811195614 62 0.0 0.0 0.00 0.00 0.00 92 1019.5
20220811194627 62 0.0 0.0 0.00 0.00 0.00 92 1019.5
20220811193620 63 0.0 0.0 0.00 0.00 0.00 90 1019.4
20220811192552 64 0.0 0.0 0.00 0.00 0.00 88 1019.2
20220811191551 65 0.0 0.0 0.00 0.00 0.00 87 1019.4
20220811190523 65 0.0 0.0 0.00 0.00 0.00 86 1019.3
20220811185544 67 0.0 0.0 0.00 0.00 0.00 82 1019.2
20220811184544 68 166 0.0 0.9 0.00 0.00 0.00 77 1019.3
20220811183524 69 0.0 0.9 0.00 0.00 0.00 76 1019.1
20220811182613 70 167 0.0 0.9 0.00 0.00 0.00 75 1019.1
20220811181646 72 169 0.0 0.9 0.00 0.00 0.00 72 1019.0
20220811180546 73 166 0.9 1.7 0.00 0.00 0.00 70 1019.1
20220811175526 74 150 0.9 1.7 0.00 0.00 0.00 67 1019.0
20220811174547 74 155 0.9 1.7 0.00 0.00 0.00 66 1018.9
20220811173527 75 166 0.0 1.7 0.00 0.00 0.00 65 1018.9
20220811172528 76 156 0.9 1.7 0.00 0.00 0.00 63 1018.9
20220811171528 79 236 1.7 4.3 0.00 0.00 0.00 51 1019.0
20220811170528 79 222 1.7 4.3 0.00 0.00 0.00 52 1018.9
20220811165655 79 239 3.5 7.0 0.00 0.00 0.00 50 1018.9
20220811164613 79 233 3.5 7.0 0.00 0.00 0.00 50 1019.0
20220811163525 79 230 2.6 6.1 0.00 0.00 0.00 50 1018.8
20220811162546 79 223 2.6 7.8 0.00 0.00 0.00 51 1019.0
20220811161527 78 222 1.7 4.3 0.00 0.00 0.00 53 1019.0
20220811160547 78 229 2.6 6.1 0.00 0.00 0.00 52 1019.0
20220811155608 77 208 1.7 6.1 0.00 0.00 0.00 52 1019.1
20220811154656 78 233 1.7 6.1 0.00 0.00 0.00 51 1019.0
20220811153736 80 212 2.6 7.0 0.00 0.00 0.00 50 1019.0
20220811152556 79 221 3.5 7.0 0.00 0.00 0.00 49 1019.0
20220811151718 78 221 2.6 6.1 0.00 0.00 0.00 51 1019.0
20220811150617 80 243 3.5 6.1 0.00 0.00 0.00 50 1019.0
20220811145618 80 238 3.5 7.0 0.00 0.00 0.00 50 1019.0
20220811144558 80 248 4.3 7.8 0.00 0.00 0.00 50 1019.0
20220811143558 79 219 2.6 5.2 0.00 0.00 0.00 51 1019.0
20220811142636 78 243 2.6 4.3 0.00 0.00 0.00 52 1019.0
20220811141639 78 250 2.6 5.2 0.00 0.00 0.00 50 1019.1
20220811140620 79 240 1.7 5.2 0.00 0.00 0.00 51 1019.2
20220811135600 78 222 1.7 2.6 0.00 0.00 0.00 53 1019.2
20220811134614 79 256 2.6 5.2 0.00 0.00 0.00 51 1019.2
20220811133532 81 248 3.5 7.0 0.00 0.00 0.00 49 1019.2
20220811132516 81 229 1.7 5.2 0.00 0.00 0.00 49 1019.1
20220811131517 81 223 2.6 4.3 0.00 0.00 0.00 50 1019.3
20220811130622 80 248 3.5 7.8 0.00 0.00 0.00 51 1019.2
20220811125534 80 212 2.6 5.2 0.00 0.00 0.00 53 1019.2
20220811124535 80 194 0.9 7.0 0.00 0.00 0.00 54 1019.2
20220811123534 80 239 2.6 7.0 0.00 0.00 0.00 52 1019.3
20220811122519 80 215 1.7 4.3 0.00 0.00 0.00 53 1019.3
20220811121519 81 227 0.9 2.6 0.00 0.00 0.00 50 1019.2
20220811120600 79 228 0.9 2.6 0.00 0.00 0.00 53 1019.3
20220811115538 79 202 0.0 1.7 0.00 0.00 0.00 51 1019.3
20220811114558 78 192 0.9 2.6 0.00 0.00 0.00 50 1019.3
20220811113541 78 213 1.7 7.8 0.00 0.00 0.00 52 1019.4
20220811112600 77 233 2.6 2.6 0.00 0.00 0.00 53 1019.5
20220811111518 78 201 0.9 5.2 0.00 0.00 0.00 54 1019.5
20220811110614 78 234 1.7 5.2 0.00 0.00 0.00 53 1019.6
20220811105559 78 222 1.7 5.2 0.00 0.00 0.00 53 1019.6
20220811104719 77 200 0.0 2.6 0.00 0.00 0.00 53 1019.5
20220811103700 76 276 1.7 4.3 0.00 0.00 0.00 55 1019.5
20220811102600 76 258 2.6 5.2 0.00 0.00 0.00 55 1019.5
20220811101536 77 232 1.7 2.6 0.00 0.00 0.00 54 1019.5
20220811100537 76 252 2.6 4.3 0.00 0.00 0.00 54 1019.5
20220811095518 76 230 2.6 7.0 0.00 0.00 0.00 54 1019.5
20220811094520 75 243 1.7 5.2 0.00 0.00 0.00 56 1019.5
20220811093518 75 237 1.7 5.2 0.00 0.00 0.00 57 1019.5
20220811092555 75 225 1.7 5.2 0.00 0.00 0.00 58 1019.4
20220811091655 75 241 1.7 4.3 0.00 0.00 0.00 57 1019.4
20220811090519 74 253 2.6 5.2 0.00 0.00 0.00 60 1019.3
20220811085522 73 244 3.5 6.1 0.00 0.00 0.00 62 1019.3
20220811084520 73 228 2.6 7.0 0.00 0.00 0.00 61 1019.2
20220811083521 73 238 3.5 7.8 0.00 0.00 0.00 61 1019.3
20220811082522 73 242 4.3 7.0 0.00 0.00 0.00 62 1019.2
20220811081522 72 246 3.5 7.8 0.00 0.00 0.00 62 1019.0
20220811080523 72 242 3.5 7.8 0.00 0.00 0.00 63 1019.0
20220811075542 72 249 3.5 7.0 0.00 0.00 0.00 62 1018.9
20220811074523 71 263 4.3 7.0 0.00 0.00 0.00 62 1018.8
20220811073543 71 269 5.2 8.7 0.00 0.00 0.00 63 1018.7
20220811072523 71 259 5.2 8.7 0.00 0.00 0.00 63 1018.7
20220811071524 71 239 3.5 6.1 0.00 0.00 0.00 64 1018.7
20220811070544 71 258 2.6 6.1 0.00 0.00 0.00 63 1018.7
20220811065605 71 242 3.5 7.8 0.00 0.00 0.00 65 1018.6
20220811064526 70 196 0.9 2.6 0.00 0.00 0.00 69 1018.5
20220811063546 70 212 0.9 2.6 0.00 0.00 0.00 69 1018.3
20220811062526 69 214 1.7 2.6 0.00 0.00 0.00 70 1018.3
20220811061606 68 219 1.7 5.2 0.00 0.00 0.00 72 1018.3
20220811060527 68 229 1.7 4.3 0.00 0.00 0.00 73 1018.3
20220811055547 67 232 1.7 4.3 0.00 0.00 0.00 75 1018.2
20220811054528 67 223 1.7 4.3 0.00 0.00 0.00 77 1018.0
20220811053631 66 184 0.9 2.6 0.00 0.00 0.00 77 1018.0
20220811052528 65 198 0.9 4.3 0.00 0.00 0.00 79 1018.0
20220811051609 64 204 1.7 5.2 0.00 0.00 0.00 81 1017.9
20220811050529 64 240 3.5 7.0 0.00 0.00 0.00 81 1017.6
20220811045614 63 235 3.5 7.0 0.00 0.00 0.00 83 1017.6
20220811044551 63 199 1.7 5.2 0.00 0.00 0.00 84 1017.7
20220811043614 62 216 2.6 6.1 0.00 0.00 0.00 85 1017.8
20220811042531 62 211 1.7 6.1 0.00 0.00 0.00 85 1017.7
20220811041635 62 228 4.3 8.7 0.00 0.00 0.00 85 1017.7
20220811040552 62 247 4.3 7.0 0.00 0.00 0.00 86 1017.7
20220811035532 61 232 3.5 7.0 0.00 0.00 0.00 88 1017.7
20220811034517 61 227 3.5 6.1 0.00 0.00 0.00 89 1017.8
20220811033538 61 232 2.6 6.1 0.00 0.00 0.00 89 1017.8
20220811032538 61 210 1.7 4.3 0.00 0.00 0.00 90 1017.8
20220811031519 61 216 1.7 2.6 0.00 0.00 0.00 89 1017.9
20220811030518 61 215 0.9 1.7 0.00 0.00 0.00 89 1018.0
20220811025615 61 198 0.9 1.7 0.00 0.00 0.00 89 1017.9
20220811024615 61 192 0.9 4.3 0.00 0.00 0.00 90 1017.9
20220811023636 61 197 0.9 2.6 0.00 0.00 0.00 89 1017.9
20220811022541 62 197 0.0 4.3 0.00 0.00 0.00 87 1018.0
20220811021541 62 205 0.9 2.6 0.00 0.00 0.00 87 1018.1
20220811020522 63 239 1.7 4.3 0.00 0.00 0.00 86 1018.0
20220811015538 62 193 0.9 5.2 0.00 0.00 0.00 88 1017.9
20220811014538 61 196 0.9 1.7 0.00 0.00 0.00 89 1017.9
20220811013618 62 212 0.9 4.3 0.00 0.00 0.00 88 1017.9
20220811012618 61 201 0.0 0.9 0.00 0.00 0.00 91 1017.9
20220811011600 62 173 0.9 1.7 0.00 0.00 0.00 89 1017.8
20220811010539 61 155 0.0 1.7 0.00 0.00 0.00 91 1018.0
20220811005540 61 155 0.0 0.9 0.00 0.00 0.00 92 1017.9
20220811004541 60 169 0.0 0.9 0.00 0.00 0.00 93 1017.8
20220811003520 61 155 0.0 1.7 0.00 0.00 0.00 91 1017.9
20220811002521 61 173 0.0 0.9 0.00 0.00 0.00 92 1018.1
20220811001521 62 177 0.0 0.9 0.00 0.00 0.00 91 1018.1
20220811000638 62 184 0.9 1.7 0.00 0.00 0.00 90 1018.2
20220810235539 62 182 0.0 1.7 0.00 0.00 0.00 89 1018.3